Hourly Data Report for September 19, 2004

SHERBROOKE A
QUEBEC

45°26'00.000" N
71°41'00.000" W
241.40 m
7028124
71610
YSC

Download Data

Hourly Data (September 2004)
Hourly Data Report for September 19, 2004
TIME
LST
Temp Definition
°C
Dew Point Definition
°C
Rel Hum Definition
%
Precip. Amount Definition
mm

Wind Dir Definition
10's deg

Wind Spd Definition
km/h
Visibility Definition
km
Stn Press Definition
kPa
Hmdx Definition


Wind Chill Definition


Weather Definition


00:00 6.6 3.8 82   32 11 15.0 99.14      
01:00 6.7 3.8 82     0 15.0 99.17      
02:00 5.7 3.6 86   32 9 15.0 99.16      
03:00 5.8 4.0 88   27 6 15.0 99.19      
04:00 5.2 3.6 89   32 11 15.0 99.22      
05:00 5.4 3.6 88   32 9 15.0 99.26      
06:00 5.4 3.7 89   26 7 15.0 99.34      
07:00 5.9 4.2 89   29 7 24.1 99.39     Mostly Cloudy
08:00 6.8 4.9 88   27 11 24.1 99.44     Mostly Cloudy
09:00 7.8 4.6 80   33 11 24.1 99.51     Mostly Cloudy
10:00 9.6 5.7 77   32 13 24.1 99.51     Mostly Cloudy
11:00 10.9 5.5 69   35 13 24.1 99.52     Mostly Cloudy
12:00 11.3 5.0 65   36 9 24.1 99.54     Mostly Cloudy
13:00 11.4 5.6 67   33 9 24.1 99.57     Cloudy
14:00 12.1 5.7 65   33 11 24.1 99.59     Mostly Cloudy
15:00 13.2 5.4 59   34 19 24.1 99.57     Mostly Cloudy
16:00 12.5 5.3 61   32 11 24.1 99.62     Mostly Cloudy
17:00 12.4 5.6 63   32 13 15.0 99.67      
18:00 10.3 5.5 72   33 6 15.0 99.71      
19:00 9.0 4.7 74   31 6 15.0 99.77      
20:00 7.0 4.5 84   3 4 15.0 99.78      
21:00 4.5 3.0 90     0 15.0 99.80      
22:00 4.1 3.2 94     0 15.0 99.83      
23:00 2.9 2.1 94     0 15.0 99.81      

Notes on Data Quality.

Legend

  • E = Estimated
  • M = Missing
  • NA = Not Available*
  • [empty] = Indicates an unobserved value
Date modified: